[[{"header":{"parameterUnit":"m.s-1","parameterCategory":2,"la1":30.2991,"la2":30.254,"lo1":-89.0895,"lo2":-89.0444,"dy":0.0017,"dx":0.0017,"nx":28,"ny":28,"refTime":"2024-07-24T09:00:00:Z","depth":"0","parameterNumber":2,"parameterNumberName":"U-component_of_CURRENTS"},"data":[0,0,0,0,0,0,0,0,0,0,0,0,0,0,0,0,0,0,0,0,0,0,0,0,0,0,0,0,0,0,0,0,0,0,0,0,0,0,0,0,0,0,0,0,0,0,0,0,0,0,0,0,0,0,0,0,0,0,0.2271,0.2272,0,0.2309,0.2309,0.2309,0.2302,0.2302,0.2301,0.2301,0.234,0.2342,0.2343,0,0,0,0,0,0,0,0,0,0,0,0,0,0.2199,0.22,0.2271,0.2272,0.2273,0.2309,0.2309,0.2309,0.2302,0.2302,0.2301,0.2301,0.234,0.2342,0.2343,0,0,0,0,0,0,0,0,0,0,0,0,0,0.2229,0.2201,0.2271,0.2277,0.2278,0.2309,0.2309,0.2309,0.2302,0.2302,0.2301,0.2301,0.234,0.2341,0.2343,0.2363,0,0,0.2349,0.235,0,0,0,0,0,0,0,0,0.2227,0.2231,0.2275,0.2277,0.2278,0.2305,0.2299,0.2329,0.2302,0.2288,0.2301,0.2301,0.2332,0.2335,0.2336,0.2365,0.2366,0.2349,0.2351,0.2351,0.2352,0,0,0,0,0,0,0,0.2225,0.2229,0.2281,0.2276,0.2278,0.2281,0.2284,0.2304,0.2308,0.2289,0.229,0.2302,0.2332,0.2334,0.2337,0.2367,0.2349,0.2351,0.2352,0.2353,0.2439,0.244,0,0,0,0,0,0,0.223,0.2227,0.228,0.2283,0.2257,0.2283,0.2286,0.2293,0.2308,0.2311,0.2302,0.2302,0.2331,0.2334,0.2338,0.2353,0.2351,0.2353,0.2354,0.2438,0.2439,0.244,0,0,0,0,0,0,0.2228,0.2234,0.2279,0.226,0.2266,0.2285,0.2292,0.2294,0.2294,0.2319,0.2321,0.2302,0.2331,0.2335,0.2356,0.2355,0.2354,0.2356,0.2436,0.2438,0.244,0.2389,0,0,0,0,0,0,0.2226,0.2233,0.2233,0.226,0.2268,0.2283,0.2293,0.2295,0.2305,0.2304,0.2319,0.2322,0.2331,0.2354,0.2358,0.2358,0.2357,0.2435,0.2437,0.2439,0.239,0.2389,0.2389,0,0,0,0,0,0.2223,0.2223,0.2233,0.224,0.2269,0.2283,0.2286,0.2295,0.2305,0.2296,0.2318,0.2322,0.2371,0.2356,0.2361,0.2361,0.2434,0.2436,0.2439,0.239,0.2389,0.2389,0,0,0,0,0,0,0.2186,0.2224,0.2235,0.2245,0.2259,0.2283,0.2282,0.2296,0.2306,0.2308,0.233,0.2335,0.236,0.2374,0.2357,0.2397,0.2406,0.241,0.2367,0.2367,0.2366,0.2401,0.2359,0,0,0,0,0,0.2183,0.2196,0.2225,0.2232,0.2238,0.2261,0.2269,0.2277,0.2297,0.23,0.2315,0.2343,0.2376,0.238,0.2409,0.2421,0.2483,0.243,0.243,0.2429,0.2465,0.2553,0.2564,0.2449,0.2448,0.2448,0,0,0.2172,0.2196,0.2203,0.2226,0.2238,0.2252,0.2262,0.227,0.2285,0.2305,0.232,0.2345,0.2385,0.2402,0.2414,0.2408,0.2492,0.2432,0.2431,0.2468,0.2557,0.2568,0.2579,0.245,0.245,0.245,0,0,0.2168,0.2175,0.2189,0.22,0.2224,0.2237,0.224,0.2262,0.2267,0.2289,0.2318,0.2352,0.2377,0.2411,0.2434,0.2456,0.2496,0.245,0.2459,0.2543,0.2553,0.2563,0.2639,0.2656,0.2436,0.2436,0.2436,0,0.2156,0.2183,0.2191,0.2207,0.2223,0.2233,0.2248,0.2255,0.2281,0.2299,0.2289,0.2375,0.2395,0.2451,0.2455,0.2456,0.2506,0.2446,0.2541,0.2553,0.2564,0.2639,0.2659,0.2434,0.2434,0.2434,0.2434,0,0.217,0.2188,0.2192,0.2223,0.2227,0.2241,0.2257,0.226,0.2272,0.2295,0.2345,0.2379,0.2436,0.2435,0.245,0.2531,0.2542,0.2536,0.2537,0.2572,0.265,0.2671,0.2431,0.2431,0.2432,0.2433,0,0,0.2162,0.22,0.2201,0.2216,0.2241,0.2243,0.2261,0.2289,0.2305,0.2331,0.2375,0.2432,0.2456,0.2489,0.2505,0.2567,0.2671,0.2577,0.2582,0.2643,0.2856,0.2784,0.2801,0.2671,0.2675,0.2678,0.2871,0,0.2179,0.221,0.2227,0.2247,0.2263,0.2273,0.2287,0.2306,0.2321,0.2354,0.2411,0.2455,0.2471,0.2488,0.2561,0.265,0.2729,0.262,0.2824,0.2831,0.2755,0.2824,0.2683,0.2837,0.2892,0.2896,0.2899,0,0.2199,0.2218,0.2245,0.2267,0.2272,0.2279,0.2296,0.231,0.2357,0.2373,0.2435,0.2472,0.258,0.2575,0.2779,0.2704,0.2798,0.2861,0.2869,0.2846,0.28,0.2817,0.2874,0.2746,0.2932,0.2929,0.2927,0,0.2197,0.2231,0.2251,0.226,0.2283,0.2288,0.2294,0.2319,0.233,0.2389,0.2415,0.2532,0.2601,0.2738,0.2871,0.2834,0.3092,0.3054,0.3089,0.3085,0.3033,0.3016,0.2988,0.323,0.3229,0.3229,0.3228,0,0.2221,0.2231,0.2246,0.2255,0.2262,0.2276,0.2285,0.2299,0.2336,0.2364,0.2429,0.2483,0.2648,0.2792,0.2908,0.3072,0.3136,0.3133,0.3144,0.3007,0.2987,0.2927,0.2859,0.3236,0.3234,0.3233,0.3232,0,0.2217,0.2237,0.225,0.2264,0.2264,0.226,0.2268,0.2273,0.2311,0.2354,0.2377,0.2492,0.2659,0.2822,0.3051,0.3115,0.3169,0.3314,0.3135,0.312,0.2974,0.291,0.2883,0.2824,0.3377,0.3377,0.3376,0,0.2219,0.2231,0.2239,0.2233,0.2237,0.2236,0.2233,0.2257,0.2266,0.2354,0.238,0.2535,0.2626,0.292,0.3074,0.3275,0.3168,0.3237,0.3139,0.2975,0.2914,0.2794,0.2737,0.3058,0.3055,0.3052,0.3051,0,0.2213,0.2216,0.2222,0.2212,0.2204,0.2197,0.2198,0.2201,0.2241,0.2277,0.2345,0.2419,0.2673,0.2782,0.3019,0.3128,0.3018,0.319,0.3082,0.2723,0.2536,0.2477,0.2916,0.3029,0.3031,0.3033,0.3034,0.3035,0.2194,0.2191,0.2194,0.2174,0.2167,0.2145,0.2118,0.2135,0.2141,0.2169,0.228,0.2344,0.2487,0.2779,0.2869,0.2875,0.2908,0.2802,0.2764,0.2679,0.2523,0.2903,0.2972,0.2974,0.2975,0.2977,0.2978,0,0.2153,0.2155,0.2148,0.2119,0.2081,0.2094,0.2079,0.2043,0.2025,0.2084,0.213,0.2195,0.2288,0.241,0.2495,0.2442,0.2397,0.2386,0.2183,0.2174,0.2577,0.246,0.2342,0.2342,0.2342,0.2343,0.2343,0.2343,0.2133,0.2111,0.2103,0.203,0.2004,0.1932,0.1905,0.1876,0.1891,0.186,0.1862,0.1914,0.1986,0.2024,0.1989,0.1999,0.1867,0.1804,0.184,0.2087,0.2121,0.2155,0.2027,0.1821,0.1821,0.1356,0.1352,0.1349]},{"header":{"parameterUnit":"m.s-1","parameterCategory":2,"la1":30.2991,"la2":30.254,"lo1":-89.0895,"lo2":-89.0444,"dy":0.0017,"dx":0.0017,"nx":28,"ny":28,"refTime":"2024-07-24T09:00:00:Z","depth":"0","parameterNumber":3,"parameterNumberName":"V-component_of_CURRENTS"},"data":[0,0,0,0,0,0,0,0,0,0,0,0,0,0,0,0,0,0,0,0,0,0,0,0,0,0,0,0,0,0,0,0,0,0,0,0,0,0,0,0,0,0,0,0,0,0,0,0,0,0,0,0,0,0,0,0,0,0,0.0076,0.0076,0,0.006,0.006,0.006,0.0018,0.0016,0.0015,0.0014,-0.0021,-0.0021,-0.0021,0,0,0,0,0,0,0,0,0,0,0,0,0,0.011,0.011,0.0076,0.0076,0.0075,0.006,0.006,0.006,0.0018,0.0016,0.0015,0.0014,-0.0021,-0.0021,-0.0021,0,0,0,0,0,0,0,0,0,0,0,0,0,0.0097,0.0109,0.0076,0.0051,0.0048,0.006,0.006,0.006,0.0018,0.0016,0.0015,0.0013,-0.0021,-0.0021,-0.0021,0.0013,0,0,-0.002,-0.002,0,0,0,0,0,0,0,0,0.0098,0.0096,0.0055,0.0053,0.005,0.0037,0.0059,0.0043,0.0018,0.0032,0.0014,0.0012,-0.0003,-0.0004,-0.0001,0.0011,0.001,-0.002,-0.002,-0.002,-0.002,0,0,0,0,0,0,0,0.0098,0.0096,0.0072,0.0055,0.0051,0.0054,0.005,0.0056,0.0025,0.003,0.0027,0.0022,-0.0005,-0.0001,-0.0002,0.0009,-0.002,-0.002,-0.002,-0.002,0.0049,0.0051,0,0,0,0,0,0,0.0096,0.0097,0.0072,0.0071,0.0068,0.0055,0.005,0.0045,0.0025,0.002,0.0024,0.002,-0.0,-0.0002,-0.0003,0.0041,-0.002,-0.002,-0.002,0.0048,0.005,0.0052,0,0,0,0,0,0,0.0097,0.0094,0.0073,0.0082,0.0079,0.0055,0.005,0.0045,0.0046,0.002,0.0015,0.0029,-0.0002,-0.0004,0.001,0.0039,-0.002,-0.002,0.0046,0.0048,0.0051,0.0126,0,0,0,0,0,0,0.0098,0.0095,0.01,0.0082,0.0079,0.0091,0.0051,0.0046,0.0045,0.0041,0.0023,0.0018,-0.0003,0.0011,0.0011,0.0038,-0.002,0.0043,0.0047,0.005,0.0121,0.0131,0.0139,0,0,0,0,0,0.0099,0.012,0.0101,0.0098,0.0084,0.0093,0.0093,0.0071,0.0047,0.0063,0.0047,0.0018,0.0031,0.0012,0.0012,0.004,0.0042,0.0046,0.005,0.0117,0.0129,0.0139,0,0,0,0,0,0,0.0153,0.0117,0.0095,0.0107,0.0101,0.0085,0.0101,0.008,0.0081,0.0076,0.0043,0.0038,0.0061,0.0046,0.0026,0.0071,0.0032,0.0036,0.0083,0.0094,0.0103,0.0135,-0.0019,0,0,0,0,0,0.0163,0.0162,0.0134,0.0149,0.0145,0.0123,0.0125,0.011,0.0102,0.01,0.0085,0.0076,0.0081,0.0082,0.0083,0.0112,0.0109,0.013,0.0139,0.0146,0.0173,0.0193,0.0206,0.0065,0.0065,0.0065,0,0,0.0188,0.0171,0.0171,0.016,0.0153,0.0166,0.0122,0.0134,0.0149,0.0099,0.0123,0.0108,0.0096,0.0124,0.0133,0.0112,0.0185,0.0151,0.0158,0.0181,0.0198,0.0212,0.0224,0.0067,0.0067,0.0066,0,0,0.0244,0.0223,0.0238,0.0234,0.0224,0.0212,0.0216,0.0201,0.0198,0.0218,0.0186,0.0197,0.0196,0.02,0.0199,0.0264,0.0231,0.0254,0.0325,0.0344,0.0355,0.0366,0.0376,0.0387,0.0258,0.0258,0.0258,0,0.0278,0.0282,0.0251,0.0266,0.027,0.0234,0.0257,0.0261,0.0254,0.0268,0.0236,0.0262,0.0241,0.0288,0.0303,0.0286,0.0284,0.0281,0.0355,0.0366,0.0375,0.0383,0.0394,0.0262,0.0262,0.0261,0.0261,0,0.0336,0.034,0.0357,0.0353,0.036,0.0379,0.0364,0.038,0.0365,0.0364,0.0404,0.0386,0.0402,0.0393,0.0364,0.0425,0.0398,0.0362,0.0327,0.0394,0.0398,0.0408,0.0268,0.0267,0.0265,0.0264,0,0,0.0407,0.0395,0.04,0.0404,0.0402,0.0413,0.045,0.0473,0.0503,0.0505,0.0554,0.056,0.0547,0.0548,0.0517,0.0531,0.058,0.0478,0.0477,0.0488,0.0618,0.0583,0.059,0.055,0.0552,0.0554,0.0592,0,0.0461,0.0491,0.0476,0.0518,0.053,0.0516,0.0552,0.0571,0.0581,0.0623,0.0626,0.0654,0.0606,0.061,0.0626,0.059,0.0611,0.0574,0.0553,0.0554,0.0514,0.0603,0.058,0.0611,0.0601,0.0603,0.0604,0,0.0519,0.0526,0.0564,0.0579,0.0586,0.0611,0.0656,0.0683,0.0732,0.0741,0.0782,0.0775,0.0815,0.075,0.0765,0.0739,0.0699,0.0667,0.0667,0.0622,0.0539,0.0544,0.0629,0.0502,0.0619,0.0618,0.0617,0,0.0566,0.0591,0.0617,0.0623,0.0639,0.0666,0.0682,0.0725,0.0756,0.0819,0.0853,0.0894,0.0913,0.0892,0.0835,0.0799,0.084,0.0775,0.0717,0.0712,0.0687,0.0677,0.065,0.08,0.08,0.08,0.08,0,0.062,0.0643,0.0639,0.0653,0.0697,0.0701,0.0761,0.0784,0.084,0.0898,0.0915,0.0974,0.0948,0.0961,0.0894,0.0853,0.089,0.0765,0.0736,0.0711,0.0703,0.0583,0.0537,0.0802,0.0801,0.0801,0.0801,0,0.0658,0.0659,0.0685,0.0704,0.0714,0.0743,0.0786,0.0832,0.0879,0.0959,0.0984,0.1048,0.1069,0.1035,0.1004,0.0928,0.0835,0.0851,0.0823,0.079,0.0597,0.0557,0.0585,0.0569,0.0801,0.08,0.08,0,0.0675,0.0691,0.0709,0.0725,0.0732,0.0771,0.0802,0.0844,0.0894,0.1005,0.1052,0.1113,0.1163,0.1124,0.1017,0.0931,0.0844,0.0827,0.0757,0.0619,0.0553,0.0546,0.0531,0.075,0.0749,0.0749,0.0748,0,0.0703,0.0706,0.0721,0.0748,0.0778,0.0818,0.0866,0.0909,0.0979,0.1052,0.1157,0.1211,0.1197,0.1129,0.1013,0.093,0.0763,0.081,0.0684,0.0548,0.0526,0.0484,0.0679,0.0743,0.0744,0.0744,0.0744,0.0745,0.0717,0.0728,0.0745,0.0774,0.0809,0.0865,0.0906,0.097,0.1054,0.1171,0.1218,0.1305,0.1192,0.1045,0.0928,0.0668,0.0723,0.0559,0.0535,0.0549,0.0508,0.0693,0.0703,0.0704,0.0704,0.0704,0.0704,0,0.0729,0.0743,0.0771,0.081,0.0851,0.087,0.095,0.1003,0.1099,0.1206,0.1292,0.1274,0.1104,0.0921,0.0598,0.0411,0.0383,0.0314,0.0286,0.0292,0.046,0.0425,0.0354,0.0355,0.0355,0.0355,0.0355,0.0355,0.074,0.0762,0.0775,0.084,0.0871,0.0936,0.0984,0.1065,0.1148,0.1257,0.1306,0.1343,0.1175,0.0618,0.022,0.0141,0.0048,0.0045,0.0019,0.0076,0.0096,0.0115,0.0069,-0.0076,-0.0076,-0.0136,-0.0137,-0.0138]}],[{"header":{"parameterUnit":"m.s-1","parameterCategory":2,"la1":30.2991,"la2":30.254,"lo1":-89.0895,"lo2":-89.0444,"dy":0.0017,"dx":0.0017,"nx":28,"ny":28,"refTime":"2024-07-24T09:00:00:Z","depth":"2","parameterNumber":2,"parameterNumberName":"U-component_of_CURRENTS"},"data":[0,0,0,0,0,0,0,0,0,0,0,0,0,0,0,0,0,0,0,0,0,0,0,0,0,0,0,0,0,0,0,0,0,0,0,0,0,0,0,0,0,0,0,0,0,0,0,0,0,0,0,0,0,0,0,0,0,0,0.0681,0.0681,0,0.0705,0.0706,0.0706,0.0727,0.0727,0.0727,0.0728,0.0784,0.0785,0.0787,0,0,0,0,0,0,0,0,0,0,0,0,0,0.0656,0.0657,0.0681,0.0681,0.0681,0.0705,0.0706,0.0706,0.0727,0.0727,0.0728,0.0728,0.0784,0.0785,0.0787,0,0,0,0,0,0,0,0,0,0,0,0,0,0.0672,0.0657,0.0681,0.0695,0.0696,0.0705,0.0706,0.0706,0.0727,0.0727,0.0728,0.0728,0.0783,0.0785,0.0787,0.0791,0,0,0.0793,0.0794,0,0,0,0,0,0,0,0,0.0671,0.0673,0.0692,0.0694,0.0696,0.0714,0.0718,0.0736,0.0727,0.0715,0.0728,0.0728,0.0763,0.0767,0.077,0.0794,0.0797,0.0793,0.0794,0.0795,0.0795,0,0,0,0,0,0,0,0.067,0.0672,0.069,0.0693,0.0695,0.0701,0.0704,0.0721,0.0737,0.0716,0.0718,0.0721,0.0764,0.0768,0.0772,0.0797,0.0793,0.0794,0.0796,0.0796,0.0968,0.0971,0,0,0,0,0,0,0.0667,0.0671,0.069,0.0691,0.0684,0.0701,0.0704,0.0707,0.0737,0.0741,0.072,0.0721,0.0765,0.0769,0.0774,0.0933,0.0795,0.0797,0.0798,0.0964,0.0968,0.0972,0,0,0,0,0,0,0.0666,0.0668,0.0689,0.0682,0.0685,0.0701,0.0705,0.0708,0.074,0.0739,0.0745,0.0752,0.0765,0.0771,0.0833,0.093,0.0797,0.0799,0.096,0.0965,0.097,0.1155,0,0,0,0,0,0,0.0665,0.0668,0.0681,0.0682,0.0685,0.0727,0.0704,0.0708,0.0739,0.0742,0.0768,0.0772,0.0766,0.0831,0.0835,0.093,0.0801,0.0956,0.0963,0.0969,0.1144,0.1166,0.1184,0,0,0,0,0,0.0664,0.0688,0.0681,0.0684,0.0699,0.0729,0.0733,0.0744,0.0741,0.0772,0.0795,0.0773,0.0875,0.0835,0.0839,0.0937,0.0953,0.0961,0.0968,0.1136,0.1161,0.1183,0,0,0,0,0,0,0.07,0.0692,0.0685,0.0709,0.0729,0.0733,0.0771,0.0763,0.0802,0.0815,0.0807,0.0814,0.0905,0.0888,0.0844,0.1004,0.0914,0.0923,0.104,0.1064,0.1083,0.1028,0.0802,0,0,0,0,0,0.0707,0.072,0.0719,0.0746,0.0764,0.0769,0.0786,0.0789,0.0814,0.0832,0.0867,0.0899,0.0935,0.0972,0.0995,0.108,0.1012,0.1147,0.1167,0.1183,0.1142,0.1168,0.1185,0.0997,0.0997,0.0997,0,0,0.0731,0.0729,0.0739,0.0754,0.0777,0.0802,0.0783,0.0827,0.0858,0.0833,0.093,0.0964,0.0967,0.1069,0.111,0.1074,0.12,0.1193,0.1208,0.1155,0.1177,0.1195,0.1211,0.1002,0.1001,0.1001,0,0,0.0791,0.079,0.0824,0.0827,0.0854,0.0857,0.0875,0.0913,0.0952,0.1026,0.1028,0.1115,0.1179,0.1218,0.1233,0.1369,0.1293,0.14,0.1474,0.1504,0.1518,0.153,0.1454,0.1458,0.1425,0.1426,0.1426,0,0.0835,0.0835,0.0845,0.0867,0.0867,0.0885,0.0911,0.0954,0.1015,0.1057,0.1082,0.1198,0.1243,0.1322,0.1399,0.1415,0.1373,0.1391,0.1528,0.1538,0.1547,0.1466,0.1468,0.1435,0.1434,0.1433,0.1432,0,0.0886,0.089,0.0919,0.0936,0.0957,0.0979,0.1016,0.1088,0.1143,0.1176,0.1293,0.136,0.1422,0.149,0.1495,0.1602,0.1529,0.1541,0.1464,0.1577,0.1484,0.1483,0.145,0.1446,0.1443,0.1441,0,0,0.099,0.0956,0.0971,0.0948,0.0972,0.0988,0.1079,0.1142,0.12,0.1306,0.1372,0.1516,0.1556,0.1572,0.1618,0.1673,0.1749,0.1656,0.1653,0.1569,0.1735,0.1655,0.1643,0.1801,0.1802,0.1803,0.1638,0,0.1033,0.1027,0.1022,0.1035,0.1025,0.1053,0.1135,0.1201,0.1281,0.137,0.1449,0.154,0.1584,0.165,0.1714,0.1727,0.1755,0.1785,0.1643,0.1635,0.1545,0.1644,0.156,0.1405,0.1635,0.1635,0.1635,0,0.108,0.1054,0.1054,0.103,0.1046,0.1085,0.1171,0.1242,0.1364,0.1438,0.1524,0.1565,0.1657,0.1694,0.1728,0.1746,0.1751,0.1752,0.1746,0.1591,0.1554,0.1333,0.1391,0.163,0.1631,0.1631,0.1631,0,0.1081,0.1072,0.1053,0.1037,0.1052,0.1106,0.1158,0.1282,0.1351,0.1479,0.1524,0.1607,0.1651,0.1681,0.1706,0.173,0.1694,0.1723,0.162,0.1609,0.1459,0.1434,0.1737,0.1737,0.1737,0.1738,0.1738,0,0.1059,0.1053,0.1055,0.1031,0.1069,0.1108,0.1187,0.1283,0.1399,0.1465,0.1559,0.1586,0.1666,0.1656,0.1673,0.1615,0.1666,0.1606,0.1582,0.152,0.1504,0.1638,0.1629,0.1732,0.1733,0.1734,0.1735,0,0.1029,0.1022,0.1016,0.1045,0.1057,0.1105,0.1178,0.124,0.1371,0.1446,0.1488,0.1566,0.157,0.1581,0.1598,0.1556,0.1528,0.1498,0.1365,0.1331,0.1408,0.1411,0.1336,0.1332,0.1329,0.1326,0.1324,0,0.0989,0.0975,0.1019,0.1025,0.1038,0.1083,0.1125,0.1241,0.1299,0.1413,0.144,0.1472,0.1464,0.1396,0.1369,0.1308,0.143,0.1188,0.125,0.1393,0.1377,0.1385,0.1392,0.11,0.1096,0.1093,0.109,0,0.0901,0.0959,0.0944,0.0989,0.1022,0.1024,0.1089,0.1115,0.1253,0.1297,0.1333,0.1325,0.1283,0.1192,0.1137,0.1101,0.1195,0.1119,0.1326,0.1233,0.1165,0.1151,0.1167,0.1062,0.1065,0.1067,0.1069,0.107,0.0865,0.0859,0.0885,0.0925,0.097,0.0988,0.0995,0.1033,0.1079,0.1175,0.1176,0.1138,0.1098,0.0957,0.0925,0.0913,0.0972,0.0955,0.0968,0.0983,0.1005,0.0938,0.0788,0.079,0.0791,0.0792,0.0792,0,0.0787,0.0788,0.0802,0.0854,0.0897,0.0962,0.0987,0.0979,0.0998,0.1028,0.1046,0.0844,0.0792,0.0809,0.0732,0.0688,0.0715,0.0696,0.0758,0.0783,0.0806,0.0825,0.0557,0.0556,0.0556,0.0556,0,0,0.0728,0.0706,0.0717,0.0758,0.084,0.0909,0.0934,0.0894,0.0884,0.0788,0.0757,0.0792,0.0742,0.0636,0.0613,0.0602,0.0698,0.0576,0.0755,0.0852,0.0876,0.0929,0.0981,0,0,0,0,0]},{"header":{"parameterUnit":"m.s-1","parameterCategory":2,"la1":30.2991,"la2":30.254,"lo1":-89.0895,"lo2":-89.0444,"dy":0.0017,"dx":0.0017,"nx":28,"ny":28,"refTime":"2024-07-24T09:00:00:Z","depth":"2","parameterNumber":3,"parameterNumberName":"V-component_of_CURRENTS"},"data":[0,0,0,0,0,0,0,0,0,0,0,0,0,0,0,0,0,0,0,0,0,0,0,0,0,0,0,0,0,0,0,0,0,0,0,0,0,0,0,0,0,0,0,0,0,0,0,0,0,0,0,0,0,0,0,0,0,0,-0.0249,-0.0249,0,-0.0291,-0.0292,-0.0292,-0.0339,-0.0339,-0.034,-0.0341,-0.0429,-0.0431,-0.0432,0,0,0,0,0,0,0,0,0,0,0,0,0,-0.0175,-0.0176,-0.0249,-0.0249,-0.025,-0.0291,-0.0292,-0.0292,-0.0338,-0.0339,-0.034,-0.0341,-0.0429,-0.0431,-0.0432,0,0,0,0,0,0,0,0,0,0,0,0,0,-0.021,-0.0177,-0.0248,-0.0279,-0.0282,-0.0291,-0.0292,-0.0292,-0.0338,-0.0339,-0.0341,-0.0342,-0.0428,-0.043,-0.0433,-0.0424,0,0,-0.044,-0.0441,0,0,0,0,0,0,0,0,-0.0208,-0.0213,-0.0274,-0.0277,-0.0281,-0.0312,-0.0298,-0.0339,-0.0338,-0.0315,-0.0341,-0.0342,-0.0394,-0.04,-0.0402,-0.0428,-0.0432,-0.044,-0.0442,-0.0443,-0.0444,0,0,0,0,0,0,0,-0.0206,-0.0211,-0.0264,-0.0274,-0.0279,-0.028,-0.0286,-0.0306,-0.0347,-0.0318,-0.0321,-0.0328,-0.0396,-0.04,-0.0405,-0.0433,-0.044,-0.0442,-0.0444,-0.0445,-0.0506,-0.0506,0,0,0,0,0,0,-0.0204,-0.0209,-0.0263,-0.0266,-0.0248,-0.028,-0.0288,-0.03,-0.0346,-0.0355,-0.0327,-0.033,-0.0395,-0.0402,-0.0408,-0.0406,-0.0443,-0.0445,-0.0447,-0.0506,-0.0506,-0.0506,0,0,0,0,0,0,-0.0202,-0.0208,-0.0261,-0.0239,-0.0246,-0.0281,-0.0294,-0.03,-0.0316,-0.0353,-0.0362,-0.0339,-0.0396,-0.0405,-0.0433,-0.041,-0.0446,-0.0448,-0.0506,-0.0506,-0.0506,-0.0398,0,0,0,0,0,0,-0.02,-0.0207,-0.0218,-0.0239,-0.0247,-0.0269,-0.0293,-0.03,-0.0318,-0.0323,-0.0366,-0.0375,-0.0398,-0.0429,-0.0436,-0.0414,-0.045,-0.0505,-0.0506,-0.0506,-0.0401,-0.0394,-0.0389,0,0,0,0,0,-0.0197,-0.0204,-0.0218,-0.0225,-0.026,-0.0269,-0.0273,-0.03,-0.0318,-0.032,-0.0352,-0.0374,-0.0436,-0.0431,-0.0438,-0.0417,-0.0505,-0.0506,-0.0506,-0.0404,-0.0396,-0.0389,0,0,0,0,0,0,-0.0183,-0.021,-0.0226,-0.0244,-0.0257,-0.0278,-0.0282,-0.0301,-0.0326,-0.0333,-0.0372,-0.0382,-0.0406,-0.0431,-0.0425,-0.0441,-0.0476,-0.0478,-0.0396,-0.0389,-0.0383,-0.0359,-0.0452,0,0,0,0,0,-0.0182,-0.0193,-0.0218,-0.0231,-0.0235,-0.0259,-0.0268,-0.0285,-0.0308,-0.032,-0.0347,-0.0381,-0.041,-0.0416,-0.0452,-0.0447,-0.049,-0.0444,-0.0437,-0.0431,-0.042,-0.0463,-0.0458,-0.0508,-0.0508,-0.0508,0,0,-0.0179,-0.0197,-0.0203,-0.0228,-0.0239,-0.0241,-0.0267,-0.0276,-0.0277,-0.0325,-0.0334,-0.0368,-0.0412,-0.0415,-0.0426,-0.0429,-0.0444,-0.0432,-0.0426,-0.0418,-0.0463,-0.0457,-0.0453,-0.0508,-0.0508,-0.0508,0,0,-0.0167,-0.0192,-0.0191,-0.0204,-0.0222,-0.0229,-0.0233,-0.0251,-0.0258,-0.0268,-0.0309,-0.0322,-0.0362,-0.0373,-0.0388,-0.0369,-0.0424,-0.0389,-0.0313,-0.0354,-0.0349,-0.0346,-0.0404,-0.0406,-0.0366,-0.0366,-0.0366,0,-0.0159,-0.0174,-0.0191,-0.0196,-0.0204,-0.0224,-0.0222,-0.0225,-0.0249,-0.0248,-0.0264,-0.0314,-0.0337,-0.0341,-0.032,-0.035,-0.0394,-0.0329,-0.0342,-0.034,-0.0338,-0.0398,-0.0402,-0.0361,-0.0361,-0.0362,-0.0362,0,-0.0149,-0.0164,-0.0162,-0.0174,-0.0179,-0.0181,-0.0188,-0.0181,-0.0189,-0.0199,-0.0211,-0.0237,-0.0262,-0.0265,-0.0275,-0.027,-0.0314,-0.0341,-0.0351,-0.0326,-0.0392,-0.0398,-0.0353,-0.0355,-0.0357,-0.0358,0,0,-0.0115,-0.0148,-0.0146,-0.0157,-0.0171,-0.0172,-0.0152,-0.0145,-0.0125,-0.0145,-0.0136,-0.0149,-0.0163,-0.0182,-0.0202,-0.0204,-0.0214,-0.0244,-0.0248,-0.0283,-0.0321,-0.0256,-0.0258,-0.0242,-0.0242,-0.0243,-0.0375,0,-0.0099,-0.0108,-0.0123,-0.0124,-0.013,-0.0135,-0.0107,-0.0102,-0.0096,-0.0087,-0.0109,-0.0111,-0.0135,-0.0123,-0.0139,-0.021,-0.0225,-0.0177,-0.0357,-0.0363,-0.0292,-0.026,-0.0245,-0.0352,-0.0382,-0.0383,-0.0383,0,-0.0084,-0.0092,-0.0093,-0.0102,-0.0099,-0.0092,-0.0054,-0.0033,-0.0017,-0.0004,-0.0013,-0.0047,-0.006,-0.0076,-0.0184,-0.0157,-0.0221,-0.027,-0.0277,-0.0254,-0.0307,-0.0384,-0.0363,-0.0395,-0.0394,-0.0393,-0.0392,0,-0.0061,-0.0074,-0.0075,-0.0084,-0.0081,-0.0064,-0.0044,-0.001,0.0026,0.0052,0.0071,0.0016,-0.0001,-0.0094,-0.0188,-0.0191,-0.0314,-0.0349,-0.036,-0.036,-0.0398,-0.0398,-0.0413,-0.0413,-0.0412,-0.0412,-0.0412,0,-0.0057,-0.006,-0.0065,-0.0069,-0.0043,-0.0039,0.0003,0.0042,0.0091,0.0132,0.0112,0.0123,0.0001,-0.0087,-0.0187,-0.0288,-0.033,-0.0337,-0.0374,-0.0361,-0.0356,-0.0434,-0.0435,-0.0417,-0.0416,-0.0415,-0.0414,0,-0.006,-0.0064,-0.0061,-0.0045,-0.0041,-0.0016,0.0026,0.0071,0.0133,0.0185,0.0202,0.0181,0.0099,-0.0034,-0.0185,-0.0269,-0.0378,-0.0401,-0.0373,-0.04,-0.0409,-0.0403,-0.0446,-0.0444,-0.0443,-0.0442,-0.0441,0,-0.0073,-0.0073,-0.0047,-0.0032,-0.0033,-0.0005,0.0032,0.0093,0.015,0.0219,0.025,0.0209,0.0189,-0.0008,-0.0144,-0.0307,-0.0341,-0.0388,-0.0361,-0.0372,-0.0406,-0.0402,-0.0398,-0.0405,-0.0404,-0.0403,-0.0403,0,-0.0091,-0.0072,-0.0061,-0.0019,0.0008,0.0034,0.0088,0.0136,0.0226,0.0288,0.0345,0.0338,0.0202,0.0064,-0.0105,-0.0212,-0.0356,-0.0369,-0.0415,-0.0359,-0.0333,-0.0366,-0.0364,-0.0394,-0.0395,-0.0396,-0.0396,-0.0397,-0.0094,-0.008,-0.0041,-0.0006,0.0035,0.0094,0.0138,0.0208,0.0305,0.0441,0.0402,0.0406,0.0221,0.0031,-0.0104,-0.0235,-0.0257,-0.0339,-0.0344,-0.0349,-0.028,-0.0248,-0.0284,-0.0285,-0.0285,-0.0285,-0.0285,0,-0.0093,-0.0069,-0.0032,0.0033,0.0094,0.0113,0.0201,0.0268,0.0387,0.0468,0.0536,0.0351,0.0244,0.0067,-0.0105,-0.0219,-0.0248,-0.0257,-0.0293,-0.0301,-0.0308,-0.0238,-0.0231,-0.0231,-0.0231,-0.0231,0,0,-0.0087,-0.0056,-0.0026,0.0077,0.0134,0.0242,0.0305,0.0392,0.0454,0.0516,0.0519,0.0508,0.0245,0.0114,-0.0044,-0.0123,-0.0176,-0.0134,-0.0171,-0.0202,-0.0206,-0.0356,-0.0255,0,0,0,0,0]}],[{"header":{"parameterUnit":"m.s-1","parameterCategory":2,"la1":30.2991,"la2":30.254,"lo1":-89.0895,"lo2":-89.0444,"dy":0.0017,"dx":0.0017,"nx":28,"ny":28,"refTime":"2024-07-24T09:00:00:Z","depth":"4","parameterNumber":2,"parameterNumberName":"U-component_of_CURRENTS"},"data":[0,0,0,0,0,0,0,0,0,0,0,0,0,0,0,0,0,0,0,0,0,0,0,0,0,0,0,0,0,0,0,0,0,0,0,0,0,0,0,0,0,0,0,0,0,0,0,0,0,0,0,0,0,0,0,0,0,0,-0.0077,-0.0077,0,-0.0033,-0.0033,-0.0033,0.003,0.0031,0.0033,0.0034,0.0036,0.0035,0.0034,0,0,0,0,0,0,0,0,0,0,0,0,0,-0.0133,-0.0132,-0.0077,-0.0077,-0.0076,-0.0034,-0.0033,-0.0033,0.003,0.0031,0.0033,0.0034,0.0036,0.0035,0.0033,0,0,0,0,0,0,0,0,0,0,0,0,0,-0.0102,-0.0132,-0.0077,-0.0039,-0.0035,-0.0034,-0.0033,-0.0032,0.003,0.0031,0.0033,0.0035,0.0036,0.0035,0.0033,-0.0012,0,0,0.0028,0.0028,0,0,0,0,0,0,0,0,-0.0104,-0.01,-0.0045,-0.0041,-0.0037,-0.0004,-0.0052,-0.0027,0.0029,0.0004,0.0034,0.0036,0.0018,0.0018,0.0021,-0.0012,-0.0012,0.0028,0.0027,0.0027,0.0026,0,0,0,0,0,0,0,-0.0106,-0.0102,-0.0061,-0.0045,-0.004,-0.0033,-0.0026,-0.0047,-0.0001,0.0006,0.0011,0.0017,0.002,0.0022,0.0021,-0.0012,0.0028,0.0027,0.0026,0.0025,-0.0028,-0.0028,0,0,0,0,0,0,-0.011,-0.0104,-0.0062,-0.006,-0.0065,-0.0033,-0.0026,-0.0018,-0.0,0.0005,0.0016,0.002,0.0024,0.0023,0.0022,0.0018,0.0027,0.0025,0.0024,-0.0027,-0.0028,-0.0028,0,0,0,0,0,0,-0.0111,-0.0106,-0.0064,-0.008,-0.0074,-0.0033,-0.0025,-0.0018,0.0012,0.0008,0.0012,0.0041,0.0026,0.0024,0.0022,0.0017,0.0024,0.0023,-0.0027,-0.0028,-0.0028,-0.0022,0,0,0,0,0,0,-0.0113,-0.0107,-0.0102,-0.008,-0.0073,-0.0054,-0.0026,-0.0018,0.0012,0.0019,0.003,0.0031,0.0027,0.0025,0.0021,0.0015,0.0022,-0.0026,-0.0027,-0.0028,-0.0021,-0.0022,-0.0023,0,0,0,0,0,-0.0115,-0.0119,-0.0102,-0.0097,-0.0067,-0.0054,-0.005,-0.0017,0.0012,0.0018,0.0031,0.0032,0.0016,0.0023,0.0018,0.0012,-0.0026,-0.0027,-0.0028,-0.0021,-0.0022,-0.0023,0,0,0,0,0,0,-0.0143,-0.0112,-0.0093,-0.0087,-0.0066,-0.0043,-0.0036,-0.0008,0.0008,0.0019,0.0025,0.0025,0.002,0.0012,0.002,-0.0007,-0.0005,-0.0007,0.0002,0.0001,-0.0,0.0009,0.002,0,0,0,0,0,-0.0148,-0.0139,-0.0109,-0.0104,-0.0092,-0.0059,-0.0047,-0.0022,-0.0006,0.0006,0.0014,0.0015,0.0004,0.0004,-0.0009,-0.0026,-0.0024,-0.0033,-0.0034,-0.0034,-0.003,-0.0039,-0.004,-0.0032,-0.0032,-0.0032,0,0,-0.0159,-0.014,-0.0135,-0.0109,-0.0089,-0.0076,-0.0047,-0.0027,-0.0013,-0.0002,0.0014,0.0011,-0.0,-0.0014,-0.0018,-0.0015,-0.0035,-0.0035,-0.0036,-0.0032,-0.004,-0.0041,-0.0041,-0.0033,-0.0032,-0.0032,0,0,-0.0178,-0.0157,-0.0152,-0.0133,-0.01,-0.0084,-0.0072,-0.004,-0.002,-0.0013,-0.0001,-0.0001,-0.0014,-0.002,-0.0026,-0.0041,-0.0039,-0.0047,-0.0043,-0.0051,-0.0051,-0.0052,-0.0042,-0.0042,-0.0046,-0.0046,-0.0046,0,-0.0191,-0.0175,-0.0151,-0.0137,-0.0121,-0.0083,-0.0071,-0.0056,-0.0028,-0.0018,-0.0006,-0.0012,-0.0019,-0.003,-0.0032,-0.0042,-0.004,-0.0036,-0.0051,-0.0051,-0.0052,-0.0042,-0.0042,-0.0046,-0.0046,-0.0046,-0.0046,0,-0.02,-0.0183,-0.018,-0.0147,-0.0132,-0.0118,-0.0089,-0.0071,-0.0043,-0.0027,-0.0022,-0.0028,-0.0026,-0.0035,-0.0037,-0.0047,-0.0041,-0.0051,-0.0045,-0.0052,-0.0041,-0.0041,-0.0046,-0.0046,-0.0046,-0.0046,0,0,-0.0237,-0.0194,-0.0192,-0.0169,-0.0131,-0.0119,-0.0102,-0.0077,-0.0057,-0.0043,-0.0024,-0.0041,-0.0028,-0.0035,-0.0038,-0.0044,-0.0044,-0.0046,-0.0046,-0.003,-0.0047,-0.0029,-0.0027,-0.0055,-0.0055,-0.0056,-0.0034,0,-0.0245,-0.0227,-0.0203,-0.0179,-0.0161,-0.0124,-0.0112,-0.0085,-0.0063,-0.0041,-0.0038,-0.0029,-0.0033,-0.0027,-0.0035,-0.0039,-0.0044,-0.0047,-0.0049,-0.0048,-0.0027,-0.0027,-0.0056,-0.0034,-0.0034,-0.0034,-0.0034,0,-0.0256,-0.0239,-0.0224,-0.0177,-0.0166,-0.0148,-0.0108,-0.0092,-0.0062,-0.0044,-0.003,-0.002,-0.0016,-0.0023,-0.0028,-0.0028,-0.0037,-0.0043,-0.0043,-0.0028,-0.0031,-0.003,-0.0033,-0.0033,-0.0034,-0.0034,-0.0034,0,-0.0284,-0.0248,-0.0236,-0.0221,-0.0174,-0.0154,-0.0125,-0.0091,-0.0072,-0.004,-0.002,-0.0014,0.0001,-0.0014,-0.002,-0.0021,-0.0029,-0.0033,-0.0026,-0.0024,-0.0048,-0.0048,-0.0048,-0.0048,-0.0048,-0.0048,-0.0048,0,-0.0291,-0.0278,-0.0243,-0.0232,-0.0206,-0.0165,-0.0134,-0.0105,-0.0067,-0.0052,-0.0019,-0.0014,0.0003,0.0003,-0.0014,-0.0012,-0.0024,-0.0019,-0.002,-0.0045,-0.0045,-0.0047,-0.0048,-0.0047,-0.0047,-0.0047,-0.0048,0,-0.0308,-0.0292,-0.0277,-0.0236,-0.0215,-0.0196,-0.0131,-0.0112,-0.0071,-0.0047,-0.0035,-0.0001,0.0005,0.0014,-0.0,0.0007,-0.0006,-0.0013,-0.0026,-0.0029,0.0008,0.0008,0.0021,0.0022,0.0022,0.0023,0.0023,0,-0.0309,-0.0308,-0.0286,-0.0274,-0.0246,-0.0206,-0.0176,-0.0122,-0.0105,-0.0058,-0.0056,-0.0022,-0.0008,0.0013,0.0001,0.0004,-0.0008,0.001,0.0002,0.0016,0.0014,0.0013,0.0012,0.0024,0.0024,0.0024,0.0025,0,-0.0316,-0.0323,-0.0311,-0.0291,-0.0262,-0.023,-0.0184,-0.0164,-0.0115,-0.0088,-0.0049,-0.0016,-0.0,0.0014,0.0028,0.0009,0.0018,0.0016,0.0015,0.0008,0.002,0.0017,0.0015,0.0027,0.0027,0.0026,0.0026,0,-0.0329,-0.0328,-0.0323,-0.0294,-0.0276,-0.0245,-0.0215,-0.0169,-0.0134,-0.0071,-0.0079,-0.004,-0.0019,0.0012,-0.0003,0.0019,0.0024,0.0042,0.004,0.0037,0.0032,0.0049,0.0069,0,0,0,0,0,-0.0334,-0.0326,-0.0314,-0.0285,-0.0273,-0.0254,-0.0218,-0.0192,-0.015,-0.0114,-0.0079,-0.0067,-0.002,-0.0017,0.001,-0.0016,0.0005,0.0016,0.0019,0.0039,0.0037,0.0029,0,0,0,0,0,0,-0.0335,-0.0335,-0.0316,-0.0285,-0.0263,-0.0239,-0.0216,-0.0187,-0.0158,-0.0117,-0.0098,-0.0058,-0.0032,-0.0038,0.0009,0.0013,0.0023,0.0035,0.0036,0.0041,0.0038,0.0036,0.0028,0,0,0,0,0]},{"header":{"parameterUnit":"m.s-1","parameterCategory":2,"la1":30.2991,"la2":30.254,"lo1":-89.0895,"lo2":-89.0444,"dy":0.0017,"dx":0.0017,"nx":28,"ny":28,"refTime":"2024-07-24T09:00:00:Z","depth":"4","parameterNumber":3,"parameterNumberName":"V-component_of_CURRENTS"},"data":[0,0,0,0,0,0,0,0,0,0,0,0,0,0,0,0,0,0,0,0,0,0,0,0,0,0,0,0,0,0,0,0,0,0,0,0,0,0,0,0,0,0,0,0,0,0,0,0,0,0,0,0,0,0,0,0,0,0,0.026,0.0259,0,0.0205,0.0204,0.0204,0.0191,0.0192,0.0192,0.0193,0.0084,0.0081,0.0078,0,0,0,0,0,0,0,0,0,0,0,0,0,0.0271,0.0271,0.026,0.0259,0.0259,0.0205,0.0204,0.0203,0.0191,0.0192,0.0192,0.0193,0.0085,0.0081,0.0077,0,0,0,0,0,0,0,0,0,0,0,0,0,0.0245,0.0271,0.026,0.0247,0.0246,0.0205,0.0204,0.0203,0.0191,0.0192,0.0192,0.0193,0.0087,0.0082,0.0077,0.003,0,0,0.0061,0.0059,0,0,0,0,0,0,0,0,0.0247,0.0244,0.0249,0.0248,0.0246,0.0207,0.0169,0.0143,0.0191,0.021,0.0193,0.0194,0.0121,0.0113,0.01,0.0025,0.002,0.0061,0.0058,0.0056,0.0054,0,0,0,0,0,0,0,0.0249,0.0246,0.0236,0.0249,0.0247,0.0216,0.0214,0.0164,0.0159,0.0208,0.0208,0.0204,0.0119,0.0105,0.0097,0.0019,0.0061,0.0057,0.0053,0.0051,-0.0115,-0.0116,0,0,0,0,0,0,0.0262,0.0248,0.0238,0.0235,0.025,0.0216,0.0213,0.0218,0.0161,0.0154,0.0203,0.0204,0.0113,0.0103,0.0093,0.001,0.0056,0.0051,0.0048,-0.0114,-0.0115,-0.0117,0,0,0,0,0,0,0.0263,0.0262,0.024,0.0241,0.0237,0.0216,0.022,0.0216,0.0187,0.0158,0.015,0.0178,0.0113,0.01,0.0037,0.0007,0.0049,0.0044,-0.0112,-0.0114,-0.0116,-0.014,0,0,0,0,0,0,0.0263,0.0263,0.0261,0.0242,0.0237,0.0204,0.0219,0.0215,0.0186,0.0185,0.0133,0.0125,0.0113,0.0045,0.0032,0.0001,0.004,-0.011,-0.0113,-0.0115,-0.0138,-0.0143,-0.0147,0,0,0,0,0,0.0264,0.0252,0.0261,0.0259,0.0239,0.0203,0.0196,0.0183,0.0183,0.0161,0.0131,0.0126,0.002,0.0039,0.0024,-0.0009,-0.0109,-0.0112,-0.0115,-0.0136,-0.0142,-0.0147,0,0,0,0,0,0,0.0251,0.0249,0.0259,0.0247,0.0226,0.0202,0.0175,0.0169,0.0127,0.0119,0.0099,0.0088,0.0026,0.0007,0.0029,-0.0063,-0.0043,-0.0049,-0.0054,-0.006,-0.0065,-0.0054,0.0036,0,0,0,0,0,0.0251,0.0243,0.0235,0.0222,0.0209,0.0189,0.017,0.016,0.0127,0.011,0.0076,0.0038,0.0002,-0.0029,-0.0066,-0.0129,-0.0119,-0.0157,-0.0162,-0.0166,-0.0167,-0.0175,-0.018,-0.0127,-0.0127,-0.0127,0,0,0.0242,0.0239,0.0235,0.0218,0.0197,0.0173,0.0178,0.0137,0.0115,0.0101,0.0042,0.0013,-0.0018,-0.0076,-0.0106,-0.0098,-0.0175,-0.017,-0.0173,-0.0172,-0.0179,-0.0183,-0.0188,-0.0129,-0.0129,-0.0128,0,0,0.0212,0.0215,0.0196,0.0178,0.0148,0.0138,0.0125,0.0088,0.0068,0.0012,0.0005,-0.0038,-0.011,-0.0128,-0.0146,-0.0205,-0.0197,-0.0225,-0.0249,-0.0257,-0.0261,-0.0264,-0.0249,-0.0251,-0.0231,-0.0231,-0.0231,0,0.02,0.0188,0.018,0.0154,0.0139,0.0123,0.0096,0.0069,0.0016,-0.0005,-0.0012,-0.0097,-0.0128,-0.0176,-0.0196,-0.0215,-0.0212,-0.0222,-0.0262,-0.0265,-0.0268,-0.0251,-0.0253,-0.0233,-0.0232,-0.0232,-0.0232,0,0.016,0.0149,0.0126,0.0105,0.0083,0.005,0.0027,-0.0008,-0.0032,-0.0053,-0.0115,-0.0153,-0.0197,-0.0218,-0.0231,-0.0275,-0.0262,-0.0261,-0.0241,-0.0274,-0.0255,-0.0256,-0.0235,-0.0234,-0.0234,-0.0233,0,0,0.013,0.0109,0.0099,0.0094,0.0057,0.0036,-0.0007,-0.0043,-0.0066,-0.0121,-0.0154,-0.0221,-0.0238,-0.0259,-0.028,-0.0297,-0.0316,-0.0298,-0.0297,-0.0272,-0.0322,-0.0304,-0.0303,-0.0326,-0.0327,-0.0327,-0.0296,0,0.01,0.0072,0.006,0.0024,0.0009,-0.0012,-0.0043,-0.0079,-0.0113,-0.0153,-0.0191,-0.0235,-0.0254,-0.0279,-0.0302,-0.0313,-0.0323,-0.0324,-0.0303,-0.0302,-0.0274,-0.0305,-0.0329,-0.0297,-0.0297,-0.0298,-0.0298,0,0.006,0.0053,0.0026,0.001,-0.0002,-0.0029,-0.0067,-0.0099,-0.015,-0.0178,-0.0225,-0.0252,-0.0296,-0.0302,-0.033,-0.0333,-0.0335,-0.0336,-0.0334,-0.031,-0.0287,-0.0261,-0.0299,-0.0299,-0.0299,-0.0299,-0.0299,0,0.0055,0.0024,0.0013,0.0004,-0.0021,-0.0045,-0.0068,-0.0114,-0.0134,-0.0195,-0.021,-0.0267,-0.0287,-0.031,-0.032,-0.0333,-0.0328,-0.0339,-0.0317,-0.0314,-0.0325,-0.0322,-0.0352,-0.0352,-0.0352,-0.0352,-0.0352,0,0.0032,0.0017,0.0011,0.0002,-0.002,-0.0045,-0.008,-0.0111,-0.0149,-0.0165,-0.0223,-0.0237,-0.0293,-0.0298,-0.0314,-0.0311,-0.032,-0.0324,-0.0313,-0.0336,-0.0335,-0.0325,-0.0322,-0.0351,-0.0351,-0.0352,-0.0352,0,0.0018,0.0017,0.0007,-0.0011,-0.0022,-0.0041,-0.0074,-0.0092,-0.013,-0.015,-0.0166,-0.0214,-0.023,-0.0256,-0.0277,-0.029,-0.0294,-0.0285,-0.0287,-0.0275,-0.0276,-0.0275,-0.0275,-0.0274,-0.0274,-0.0273,-0.0273,0,0.0008,0.0006,0.0004,-0.0,-0.0015,-0.004,-0.0055,-0.0088,-0.0097,-0.0124,-0.0125,-0.0154,-0.0183,-0.0193,-0.0229,-0.0247,-0.0253,-0.0251,-0.0299,-0.0283,-0.0272,-0.0272,-0.0272,-0.0272,-0.0272,-0.0271,-0.0271,0,-0.0007,-0.0002,-0.0003,-0.0004,-0.0017,-0.0023,-0.0043,-0.0044,-0.0069,-0.0083,-0.0096,-0.0128,-0.014,-0.0182,-0.0189,-0.0204,-0.0259,-0.0245,-0.0247,-0.0292,-0.0279,-0.0269,-0.027,-0.0269,-0.0269,-0.027,-0.027,0,-0.0019,-0.0016,-0.001,-0.0017,-0.0019,-0.0021,-0.0027,-0.0035,-0.0046,-0.0065,-0.0059,-0.0095,-0.0118,-0.0156,-0.0158,-0.0179,-0.0202,-0.0221,-0.0225,-0.0228,-0.0233,-0.021,-0.0174,0,0,0,0,0,-0.0034,-0.003,-0.0028,-0.0033,-0.003,-0.0033,-0.0026,-0.0027,-0.0029,-0.0032,-0.005,-0.0062,-0.0104,-0.0126,-0.0145,-0.0156,-0.0206,-0.0179,-0.0229,-0.0257,-0.026,-0.0275,0,0,0,0,0,0,-0.0044,-0.004,-0.0031,-0.0046,-0.0051,-0.0053,-0.0045,-0.0041,-0.0043,-0.0045,-0.0065,-0.0072,-0.0109,-0.0096,-0.0149,-0.0155,-0.019,-0.0196,-0.0197,-0.0256,-0.0258,-0.026,-0.0276,0,0,0,0,0]}]]